RH
60 44 42 47 50 52 60 68 77 79 79 79 80 81 82 79 74 71 73 76 78 81 84 83 81 82 84 77 60 57 67 65
65 37 38 46 50 52 62 72 76 74 79 75 83 82 84 78 73 69 74 79 78 82 86 84 84 80 80 80 79 53 59 65
77 40 45 48 53 52 61 65 72 73 68 78 74 81 81 75 74 71 75 77 80 81 84 88 82 76 70 70 72 77 61 69
77 42 49 51 54 53 56 62 67 73 72 76 83 83 79 77 80 81 76 78 81 83 84 86 82 76 70 67 67 58 59 64
78 51 50 54 54 52 58 59 64 69 72 69 67 60 76 78 82 80 79 82 81 84 85 83 80 76 67 64 61 63 59 59
80 54 45 51 52 67 65 66 64 61 71 64 64 74 68 79 83 80 85 88 85 80 80 81 79 75 69 66 65 67 69 72
78 74 55 53 78 86 78 68 69 68 72 71 62 66 70 76 82 84 94 93 90 84 77 80 76 71 68 71 70 68 73 77
82 84 56 58 73 81 79 70 66 63 64 70 67 64 65 68 73 77 89 89 82 80 81 78 75 72 71 71 72 72 70 74
72 84 61 62 69 77 72 70 63 61 66 68 67 62 67 66 68 72 78 80 79 77 82 77 70 70 72 71 75 78 76 78
64 77 75 69 66 77 71 68 62 62 69 63 68 65 64 67 69 73 78 86 79 76 76 74 69 70 68 73 79 75 79 78
72 73 83 69 66 73 78 71 66 62 73 62 66 66 63 68 72 75 79 86 76 76 74 69 70 67 68 70 76 75 75 80
77 74 74 75 68 76 78 74 70 71 74 74 67 73 69 77 76 75 84 82 78 77 70 67 69 67 63 67 73 72 73 76
72 76 81 86 71 74 75 72 74 70 74 71 73 78 76 82 84 84 87 84 79 74 68 63 65 64 65 65 68 70 73 75
70 77 80 77 76 72 70 70 74 74 72 72 82 87 86 87 88 88 84 82 80 71 65 64 63 65 62 67 68 71 72 74
73 86 75 72 78 75 72 71 70 74 77 83 85 92 92 92 86 87 85 81 76 68 67 63 65 60 58 58 62 67 73 72
75 85 91 91 85 81 74 71 72 73 78 80 88 90 89 89 89 87 84 78 70 68 66 64 62 60 56 63 61 65 73 74
65 81 91 91 85 83 79 76 75 74 77 80 92 91 89 89 88 85 80 74 69 66 66 65 62 51 78 74 66 65 67 65
59 68 82 86 86 83 82 80 76 75 78 91 94 90 90 87 82 78 75 72 66 67 65 63 67 72 78 73 73 74 74 71
58 63 67 78 90 89 89 81 80 80 89 94 93 92 91 81 77 74 74 68 69 68 67 68 69 62 74 71 74 72 73 73
Wind_Speed
6 10 13 16 15 13 11 8 8 8 6 5 4 3 3 3 4 4 7 4 6 6 5 5 4 5 4 4 5 6 4 4
8 17 14 8 10 11 12 10 9 9 5 6 4 4 2 2 2 6 6 6 5 6 4 5 4 5 4 3 3 6 7 3
9 9 12 15 14 13 11 11 12 9 8 3 4 4 2 1 3 4 6 6 6 6 6 5 5 5 5 4 3 3 3 4
10 13 14 13 15 16 15 14 14 11 10 5 4 5 4 2 1 2 3 6 6 6 6 5 5 4 4 4 4 5 3 4
6 11 15 16 15 14 14 14 14 10 11 10 9 8 5 4 4 3 4 5 6 6 7 6 6 4 6 4 3 3 4 3
13 14 15 13 14 12 11 10 11 10 11 12 9 6 5 3 3 7 5 4 5 7 7 6 6 4 5 6 5 6 3 3
9 8 9 12 9 10 10 12 12 8 10 10 13 13 10 6 5 5 4 3 4 5 6 6 6 6 5 5 5 6 5 5
10 10 13 13 14 13 10 14 16 15 14 12 13 14 14 12 11 7 8 5 4 6 6 7 5 6 6 5 6 6 5 4
11 12 13 14 16 16 16 16 16 15 14 14 12 13 9 9 11 9 8 8 7 8 6 7 8 8 6 6 4 4 6 5
15 9 12 13 16 18 19 18 17 14 14 13 12 11 12 10 12 10 8 7 7 8 7 8 8 8 7 6 5 5 5 4
12 11 12 12 13 14 15 15 14 13 14 13 12 12 12 10 11 12 11 9 10 10 9 8 8 8 7 6 5 5 6 3
14 13 10 10 12 13 15 13 14 13 11 10 12 11 11 10 11 12 12 12 12 12 11 10 9 9 7 7 6 6 7 6
11 12 7 10 15 15 16 16 15 14 11 12 11 10 11 11 11 11 13 13 12 12 11 10 10 9 8 8 7 6 7 6
8 7 11 14 14 14 16 16 16 12 11 11 8 9 11 11 11 12 12 13 12 12 12 11 11 10 9 7 8 7 6 6
9 7 12 14 13 13 14 14 14 13 12 11 10 10 10 11 12 12 12 13 14 12 11 11 10 10 9 8 8 6 6 6
11 10 8 7 10 11 12 12 12 14 14 13 12 10 12 12 12 12 12 12 12 12 12 10 9 9 7 8 7 6 6 5
6 6 6 10 11 12 12 11 12 14 14 13 10 11 12 12 12 12 12 12 12 12 11 11 10 6 13 12 9 6 6 6
8 9 9 10 12 10 12 11 11 12 12 12 13 13 13 12 12 13 13 13 12 11 10 10 8 7 13 13 12 5 5 5
9 8 9 10 7 7 7 9 11 11 11 12 12 13 13 13 14 13 12 11 13 12 11 11 10 7 13 14 12 6 5 4
Wind_Direction
163 180 191 180 174 167 159 160 154 152 146 125 98 125 121 146 150 139 128 128 127 112 107 109 90 86 71 59 76 53 63 65
191 189 183 157 161 160 166 157 161 148 142 138 127 151 146 134 162 143 131 132 121 115 110 102 85 87 105 128 90 60 48 13
219 164 168 176 173 170 169 166 163 162 158 141 137 139 153 161 153 145 129 140 137 130 126 116 108 101 74 63 72 101 72 22
201 176 176 171 177 176 178 179 173 165 152 126 90 79 64 75 80 120 142 151 147 134 124 122 111 100 93 75 72 95 126 38
177 184 182 182 183 180 176 183 174 167 159 158 162 170 153 193 169 143 143 141 128 128 124 119 112 108 104 96 81 90 105 103
204 191 188 181 177 177 175 183 186 172 172 169 165 159 158 159 139 137 134 116 122 129 127 125 118 106 103 105 88 79 75 104
216 175 169 180 160 166 170 172 184 180 175 170 173 171 167 151 151 146 142 133 130 131 127 123 120 117 117 113 105 94 94 91
206 182 178 174 174 176 171 177 186 185 187 182 178 181 177 173 167 162 150 155 162 154 144 143 131 125 123 119 111 107 104 99
204 197 184 182 177 181 184 189 194 197 183 187 188 179 181 179 172 165 169 174 162 162 148 135 133 132 127 120 107 106 107 104
222 189 184 182 183 187 191 195 200 193 198 189 187 178 184 182 174 166 169 152 149 151 146 139 138 133 130 129 122 118 114 108
226 210 188 187 190 190 198 201 196 192 196 195 190 185 183 177 168 168 165 150 152 147 149 147 140 137 134 128 122 126 116 113
222 219 191 181 186 189 198 198 192 190 197 199 189 183 179 169 177 171 161 158 157 156 156 150 148 144 142 131 129 131 120 119
216 228 184 185 191 191 193 194 197 193 188 193 189 178 174 171 173 166 162 164 158 158 154 153 150 150 148 143 143 141 139 135
214 210 205 202 200 199 193 192 197 189 175 181 177 167 172 172 156 157 162 156 161 157 156 156 153 151 151 149 143 148 150 149
215 226 216 206 201 197 197 194 190 184 175 176 175 171 160 151 155 156 155 160 157 157 157 153 149 149 150 152 146 147 151 160
210 210 203 197 192 191 195 193 183 179 181 182 185 169 159 154 153 156 158 158 157 151 144 144 144 144 147 152 142 149 156 163
270 246 196 199 201 199 189 185 177 173 182 182 165 155 148 150 152 152 150 148 148 145 147 145 141 132 142 143 139 143 151 158
259 220 208 209 204 193 192 177 167 176 172 163 159 154 150 152 147 150 153 151 142 139 134 130 118 124 144 144 139 132 142 149
287 244 219 208 180 172 147 161 168 168 162 162 156 154 151 151 151 154 151 151 145 142 138 135 138 146 148 143 142 137 138 151